Torna al catalogo

STARLINK-5913

AttivoComunicazioniVLEO
NORAD 55937·PAYLOAD·🇺🇸 United States

Lanciato Mar 17, 2023 da Vandenberg Space Force Base

Loading…

Prossimi Passaggi (prossime 24 ore)

TLE

AggiornatoSource: CelesTrak SupGP

Epoca: Sep 14, 2026, 21:02 UTC

1 55937C 23037Z   26257.87687500  .00284190  00000+0  23170-1 0  2571
2 55937  70.0007 167.4902 0003177 269.5679 231.5783 14.99247586    11

Traccia STARLINK-5913 in tempo reale con AllMySat

Download on the App Store